x

8452944 - Conimicut Light, Ri (cptr1) Weather Station

4:30 - Sat 30th Jul 2016 All times are EDT. -4 hours from GMT.

  • Wind
    7mph, 8mph gusts
  • Sea Temp 77°f
  • Aire Temp 73°f
  • Sea Pressure 1014.9mb
  • 8452944 - Conimicut Light, Ri
  • 8452944 - Conimicut Light, Ri

More Historic Weather Station data

Upgrade to MSW Pro to gain access to the past 30 days of data for over 8000 Wavebouys and Weather Stations around the globe.

Join Pro

Comparision Forecast

View Surf forecast
   
sáb 07/30 4:30 7 8 mph 1014.9mb 77f 73f
4:24 6 8 mph 1014.8mb 77f 73f
4:18 7 8 mph 1014.8mb 77f 73f
4:12 5 6 mph 1014.7mb 77f 73f
4:06 6 7 mph 1014.7mb 77f 72f
4:00 6 7 mph 1014.7mb 77f 72f
3:54 7 8 mph 1014.6mb 77f 72f
3:48 7 8 mph 1014.5mb 77f 72f
3:42 7
mph
1014.5mb 77f 72f
3:36 7 8 mph 1014.6mb 76f 72f
3:30 7 8 mph 1014.6mb 76f 72f
3:24 7 8 mph 1014.5mb 76f 73f
3:18 6 7 mph 1014.5mb 76f 72f
3:12 6 8 mph 1014.4mb 77f 73f
3:06 7 8 mph 1014.3mb 77f 73f
3:00 7 8 mph 1014.3mb 77f 73f
2:54 7 9 mph 1014.3mb 78f 73f
2:48 8
mph
1014.2mb 78f 73f
2:42 7 8 mph 1014.1mb 78f 74f
2:36 7 8 mph 1014.1mb 78f 73f
2:30 8 9 mph 1014.1mb 79f 74f
2:24 8 9 mph 1014.1mb 79f 74f
2:18 9 10 mph 1014.2mb 79f 74f
2:12 9 10 mph 1014.2mb 79f 73f
2:06 9 10 mph 1014.2mb 79f 73f
2:00 8 9 mph 1014.1mb 79f 73f
1:54 8 9 mph 1014.1mb 79f 73f
1:48 8 9 mph 1014.1mb 79f 74f
1:42 8 9 mph 1014.1mb 79f 74f
1:36 7 8 mph 1014mb 79f 74f
1:30 7
mph
1014mb 79f 74f
1:24 7 8 mph 1014mb 79f 74f
1:18 6 7 mph 1014.1mb 79f 74f
1:12 6 7 mph 1014.1mb 79f 74f
1:06 5 6 mph 1014.1mb 79f 74f
1:00 3 5 mph 1014.1mb 79f 74f
12:54 5 6 mph 1014.1mb 79f 75f
12:48 5 6 mph 1014.2mb 79f 74f
12:42 6 7 mph 1014.1mb 79f 74f
12:36 5 6 mph 1014mb 79f 74f
12:30 5 6 mph 1014mb 79f 74f
12:24 3 6 mph 1014mb 79f 74f
12:18 5 6 mph 1013.9mb 79f 74f
12:12 6
mph
1013.9mb 79f 74f
12:06 5 6 mph 1014mb 79f 74f
12:00 6 8 mph 1013.8mb 79f 74f
vie 07/29 11:54 6 7 mph 1013.8mb 79f 74f
11:48 6 7 mph 1013.8mb 79f 74f
11:42 5 7 mph 1013.8mb 79f 74f
11:36 6 8 mph 1013.7mb 79f 74f
11:30  -  mph 1013.6mb - -
11:24  -  mph 1013.7mb - -
11:18 7 8 mph - 79f -
11:12 6 7 mph - 79f -
11:06 6 7 mph - 79f -
11:00  -  mph 1013.5mb 79f -
10:54  -  mph 1013.6mb 79f -
10:48 5 7 mph 1013.5mb 79f -
10:42 6 7 mph 1013.3mb 79f -
10:36 6 7 mph 1013.3mb 79f -
10:30 7 9 mph 1013.3mb 79f -
10:24 8 10 mph 1013.1mb 79f -
10:18 8 9 mph 1013.1mb 79f -
10:12 8 9 mph 1013.2mb 79f -
10:06 7 8 mph 1013.2mb 79f -
10:00 6 7 mph 1013.3mb 79f 76f
9:54 5 6 mph 1013.3mb 79f 76f
9:48 3
mph
1013.3mb 79f -
9:42 2 3 mph 1013.3mb 79f -
9:36 3
mph
1013.3mb 79f -
9:30 3
mph
1013.2mb 79f -
9:24  -  1 mph 1013.1mb 79f -
9:18 1
mph
- 79f -
9:12 1 2 mph - 79f -
9:06 2
mph
- 79f -
9:00  -  mph 1013mb 79f -
8:54  -  mph 1013mb 79f -
8:48 3 5 mph 1013mb 79f -
8:42 5 6 mph 1012.8mb 78f -
8:36 5 6 mph 1012.8mb 78f -
8:30 5 6 mph 1012.6mb 78f -
8:24 5 6 mph 1012.5mb 78f -
8:18 6 7 mph - 78f 78f
8:12 6
mph
- 78f 78f
8:06 5 6 mph - 79f 78f
8:00  -  mph - 79f -
7:54  -  mph - 79f -
7:48  -  mph - 79f -
7:42  -  mph - 79f -
7:36  -  mph - 79f -
7:30  -  mph - 79f -
7:24  -  mph - 79f -
7:18  -  mph - 79f -
7:12  -  mph - 79f -
7:06  -  mph - 79f -
7:00  -  mph - 79f -
6:54  -  mph - 79f -
6:48  -  mph - 79f -
6:42  -  mph - 79f -
6:36  -  mph - 79f -
6:30  -  mph - 79f -
6:24  -  mph - 79f -
6:18  -  mph 1011.1mb 79f -
6:12  -  mph 1011mb 79f -
6:06  -  mph 1011mb 79f -
6:00  -  mph 1010.8mb 79f 82f
5:54  -  mph 1010.8mb 79f 82f
5:48 10 17 mph 1010.7mb 79f 81f
5:42 10 15 mph 1010.6mb 79f 81f
5:36 13 16 mph 1010.6mb 79f 81f
5:30 13 16 mph 1010.5mb 79f 80f
5:24 14 16 mph 1010.6mb 79f 79f
5:18 13 15 mph 1010.5mb 79f 80f
5:12 13 18 mph 1010.5mb 79f 80f
5:06 13 16 mph 1010.5mb 79f 80f
5:00 15 17 mph 1010.5mb 79f 79f
4:54 15 17 mph 1010.3mb 79f 80f
4:48 13 14 mph 1010.3mb 79f 80f
4:42 14 17 mph 1010.3mb 79f 81f
4:36 9 16 mph 1010.3mb 79f 82f
4:30 14 17 mph 1010.2mb 79f 82f
4:24 13 15 mph 1010.2mb 79f 81f
4:18 10 14 mph 1010.3mb 79f 82f
4:12 11 15 mph 1010.3mb 79f 81f
4:06 13 15 mph 1010.3mb 79f 81f
4:00 10 14 mph 1010.3mb 79f 81f
3:54 9 13 mph 1010.3mb 79f 80f
3:48 9 17 mph 1010.4mb 79f 80f
3:42 11 14 mph 1010.4mb 79f 80f
3:36 11 14 mph 1010.3mb 79f 80f
3:30 7 15 mph 1010.4mb 79f 80f
3:24 13 15 mph 1010.4mb 79f 79f
3:18 10 15 mph 1010.5mb 79f 79f
3:12 10 14 mph 1010.6mb 79f 79f
3:06 13 14 mph 1010.6mb 78f 79f
3:00 10 11 mph 1010.7mb 78f 79f
2:54 9 11 mph 1010.7mb 78f 78f
2:48 9 14 mph 1010.8mb 78f 79f
2:42 7 11 mph 1010.7mb 78f 78f
2:36 10 11 mph 1010.7mb 78f 78f
2:30 9 11 mph 1010.7mb 78f 78f
2:24 8 11 mph 1010.7mb 78f 77f
2:18 9 15 mph 1010.8mb 78f 77f
2:12 9 13 mph 1010.7mb 78f 77f
2:06 11 14 mph 1010.8mb 78f 76f
2:00 13 15 mph 1010.9mb 78f 76f
1:54 9 13 mph 1011.1mb 78f 76f
1:48 10 11 mph 1011.1mb 78f 76f
1:42 10 11 mph 1011.3mb 78f 75f
1:36 8 10 mph 1011.4mb 78f 76f
1:30 7 11 mph 1011.4mb 78f 75f
1:24 10 13 mph 1011.5mb 78f 75f
1:18 10 13 mph 1011.5mb 78f 74f
1:12 10 13 mph 1011.5mb 78f 74f
1:06 9 11 mph 1011.5mb 78f 74f
1:00 10 14 mph 1011.5mb 78f 74f
12:54 10 13 mph 1011.4mb 78f 74f
12:48 8 10 mph 1011.4mb 78f 74f
12:42 8 10 mph 1011.5mb 78f 74f
12:36 8 9 mph 1011.6mb 78f 74f
12:30 9 11 mph 1011.8mb 78f 73f
12:24 10 11 mph 1012mb 78f 73f
12:18 9 11 mph 1012.1mb 78f 73f
12:12 10 13 mph 1012.1mb 78f 73f
12:06 10 13 mph 1012.2mb 78f 73f
12:00 9 13 mph 1012.4mb 78f 74f
11:54 8 11 mph 1012.4mb 78f 74f
11:48 8 10 mph 1012.5mb 78f 74f
11:42 8 10 mph 1012.5mb 78f 74f
11:36 8 9 mph 1012.5mb 78f 74f
11:30 7 8 mph 1012.7mb 78f 74f
11:24 7 8 mph 1012.7mb 78f 74f
11:18 7 8 mph 1012.6mb 78f 74f
11:12 6 7 mph 1012.7mb 78f 74f
11:06 6 7 mph 1012.7mb 78f 74f
11:00 7 8 mph 1012.7mb 78f 74f
10:54 7 9 mph 1012.5mb 78f 74f
10:48 8 10 mph 1012.5mb 78f 74f
10:42 8 10 mph 1012.5mb 78f 74f
10:36 9 11 mph 1012.5mb 78f 74f
10:30 9 11 mph 1012.5mb 78f 74f
10:24 8 9 mph 1012.5mb 78f 74f
10:18 7 10 mph 1012.1mb 78f 74f
10:12 7 8 mph 1012mb 78f 74f
10:06 8 11 mph 1012mb 78f 74f
10:00 10 11 mph 1011.9mb 78f 74f
9:54 9 11 mph 1011.9mb 78f 74f
9:48 6 7 mph 1012mb 78f 74f
9:42 7 9 mph 1012.1mb 78f 74f
9:36 8 10 mph 1012.2mb 78f 74f
9:30 9 10 mph 1012.3mb 78f 74f
9:24 9 11 mph 1012.4mb 78f 75f
9:18 10 13 mph 1012.4mb 78f 75f
9:12 10 11 mph 1012.3mb 78f 75f
9:06 9 10 mph 1012.2mb 78f 74f
9:00 8 10 mph 1012.1mb 78f 74f
8:54 10 13 mph 1011.9mb 78f 75f
8:48 11 13 mph 1011.6mb 78f 75f
8:42 11 13 mph 1011.6mb 78f 74f
8:36 11 13 mph 1011.5mb 78f 74f
8:30 10 11 mph 1011.6mb 78f 74f
8:24 7 9 mph 1011.9mb 78f 74f
8:18 8 10 mph 1011.9mb 78f 74f
8:12 10 13 mph 1011.8mb 78f 74f
8:06 13 14 mph 1011.8mb 78f 74f
8:00 14 15 mph 1011.6mb 78f 74f
7:54 14
mph
1011.5mb 78f 74f
7:48 10 11 mph 1011.7mb 78f 75f
7:42 8 9 mph 1011.8mb 78f 74f
7:36 7 9 mph 1011.8mb 78f 74f
7:30 6 7 mph 1011.8mb 78f 75f
7:24 6 9 mph 1011.7mb 78f 75f
7:18 7 9 mph 1011.7mb 78f 75f
7:12 7 10 mph 1011.7mb 78f 75f
7:06 7 8 mph 1011.7mb 78f 75f
7:00 6 7 mph 1011.8mb 78f 75f
6:54 8 10 mph 1011.7mb 78f 75f
6:48 9 10 mph 1011.7mb 78f 75f
6:42 8 10 mph 1011.7mb 78f 75f
6:36 9 11 mph 1011.6mb 78f 76f
6:30 11 14 mph 1011.5mb 78f 75f
6:24 11
mph
1011.6mb 78f 75f
6:18 9 10 mph 1011.7mb 78f 75f
6:12 8 9 mph 1011.5mb 78f 75f
6:06 8
mph
1011.5mb 78f 75f
6:00 6 7 mph 1011.5mb 78f 75f
5:54 5 6 mph 1011.5mb 78f 75f
5:48 5 6 mph 1011.6mb 78f 75f
5:42 6 7 mph 1011.6mb 78f 75f
5:36 5 7 mph 1011.7mb 78f 75f
5:30 6 7 mph 1011.7mb 78f 75f
5:24 6
mph
1011.6mb 78f 75f
5:18 5 6 mph 1011.5mb 78f 75f
5:12 3 5 mph 1011.4mb 78f 75f
5:06 3
mph
1011.4mb 78f 75f
5:00 2 5 mph 1011.5mb 78f 75f
4:54 3 5 mph 1011.5mb 78f 75f
4:48 5 6 mph 1011.6mb 78f 75f
4:42 6 7 mph 1011.6mb 78f 75f
4:36 6 8 mph 1011.6mb 78f 75f
4:30 8 9 mph 1011.7mb 78f 75f
4:24 8 9 mph 1011.8mb 78f 75f
4:18 8
mph
1011.7mb 78f 75f
4:12 7 9 mph 1011.6mb 78f 75f
4:06 7 8 mph 1011.6mb 78f 75f
4:00 6 8 mph 1011.5mb 78f 75f
3:54 6 7 mph 1011.4mb 78f 75f
3:48 7 8 mph 1011.4mb 78f 75f
3:42 7 10 mph 1011.5mb 78f 75f
3:36 8 10 mph 1011.5mb 78f 75f
3:30 9 11 mph 1011.5mb 78f 75f
3:24 10 13 mph 1011.5mb 78f 75f
3:18 11 13 mph 1011.6mb 78f 75f
3:12 9 10 mph 1011.6mb 78f 75f
3:06 8 10 mph 1011.6mb 78f 75f
3:00 9 10 mph 1011.7mb 78f 75f
2:54 10 11 mph 1011.9mb 78f 75f
2:48 9 10 mph 1012mb 78f -
2:42 8 9 mph 1012mb 78f -
2:36 9 10 mph 1011.9mb 78f -
2:30 9 10 mph 1011.9mb 78f 75f
2:24 8 10 mph 1011.9mb 78f 75f
2:18 9 13 mph 1012mb 78f 75f
2:12 10 13 mph 1012.1mb 78f 75f
2:06 13 14 mph 1012.2mb 78f 75f
2:00 13 14 mph 1012.3mb 79f 75f
1:54 11 14 mph 1012.2mb 79f 75f
1:48 13
mph
1012.2mb 79f -
1:42 11 13 mph 1012.2mb 79f -
1:36 9 11 mph 1012.2mb 79f -
1:30 9 11 mph 1012.2mb 79f 75f
1:24 10 13 mph 1012.2mb 79f 75f
1:18 10 13 mph 1012.3mb 79f 75f
1:12 11 13 mph 1012.3mb 79f 75f
1:06 10 13 mph 1012.2mb 79f 75f
1:00 13 14 mph 1012.3mb 79f 75f
12:54 11 13 mph 1012.3mb 79f 75f
12:48 10 11 mph 1012.2mb 79f 75f
12:42 9 10 mph 1012.3mb 79f 75f
12:36 9 11 mph 1012.2mb 79f 75f
12:30 9 10 mph 1012.1mb 79f 75f
12:24 10 11 mph 1012.3mb 78f 75f
12:18 10 11 mph 1012.4mb 78f 75f
12:12 11 13 mph 1012.5mb 78f 75f
12:06 11 13 mph 1012.6mb 78f 75f
12:00 11 13 mph 1012.6mb 78f 75f
jue 07/28 11:54 11 13 mph 1012.7mb 78f 75f
11:48 11 13 mph 1012.7mb 78f 75f
11:42 10 11 mph 1012.7mb 78f 75f
11:36 9 10 mph 1012.6mb 78f 75f
11:30 9 10 mph 1012.6mb 78f 75f
11:24 9 10 mph 1012.7mb 78f 75f
11:18  -  mph 1012.8mb 78f -
11:12  -  mph 1012.9mb 78f -
11:06  -  mph 1012.8mb 78f -
11:00 10 11 mph - 78f -
10:54 9
mph
- 78f -
10:48 8 9 mph 1012.8mb 78f -
10:42 7 8 mph 1012.9mb 78f -
10:36 7 9 mph 1012.9mb 78f -
10:30 7 9 mph - - -
10:24 8 9 mph - - -
10:18  -  mph - 78f 76f
10:12  -  mph - 78f 76f
10:06  -  mph - 78f 76f
10:00  -  mph 1012.8mb - -
9:54  -  mph 1012.7mb - -
9:48 10 11 mph 1012.6mb 78f -
9:42 10 13 mph 1012.6mb 78f -
9:36 9 10 mph 1012.6mb 78f -
9:30 10 11 mph 1012.6mb - -
9:24 10 13 mph 1012.6mb - -
9:18 11 13 mph - 78f -
9:12 11 13 mph - 78f -
9:06 13 14 mph - 78f -
9:00  -  mph - 78f 76f
8:54  -  mph - 78f 77f
8:48 11 14 mph 1012.4mb 78f -
8:42 14 15 mph 1012.4mb 78f -
8:36 14 15 mph 1012.3mb 78f -
8:30 13 14 mph 1012.3mb 78f -
8:24 14
mph
1012.3mb 78f -
8:18 14
mph
1012.4mb 78f -
8:12 13 15 mph 1012.4mb 78f -
7:48 13 14 mph 1012.5mb - -
7:42 14 15 mph 1012.6mb - -
7:36 14 15 mph 1012.5mb - -
7:30 13 15 mph - - -
7:24 15 16 mph - - -
7:18 14 17 mph - 78f -
7:12 16 17 mph - 78f -
7:06 15 17 mph - 78f -
7:00  -  mph - 78f -
6:54  -  mph - 78f -
6:48  -  mph - 78f -
6:42  -  mph - 78f -
6:36  -  mph - 78f -
6:30 16 20 mph 1012.2mb 78f -
6:24 17 21 mph 1012.1mb 78f -
6:18 18 21 mph 1011.9mb 78f 78f
6:12 20 21 mph 1011.9mb 78f 78f
6:06 20 22 mph 1011.8mb 78f 78f
6:00 17 20 mph 1011.8mb 79f -
5:54 15 18 mph 1011.9mb 79f -
5:48 16 18 mph - 79f 78f
5:42 16 18 mph - 79f 78f
5:36 17 18 mph - 79f 78f
5:30 16 17 mph 1011.8mb 79f 79f
5:24 16 17 mph 1011.8mb 79f 79f
5:18 15 16 mph 1011.7mb 79f 79f
5:12 14 16 mph 1011.8mb 79f 79f
5:06 15 17 mph 1011.8mb 79f 79f
5:00 16 18 mph 1011.8mb 79f 78f
4:54 17 18 mph 1011.7mb 79f 78f
4:48 17 18 mph 1011.7mb 79f 78f
4:42 16 17 mph 1011.7mb 79f 78f
4:36 15 20 mph 1011.7mb 79f 79f
4:30 16 18 mph 1011.7mb 78f 79f
4:24 16 18 mph 1011.8mb 78f 79f
4:18 15 20 mph 1011.8mb 78f 79f
4:12 17 20 mph 1011.8mb 78f 79f
4:06 17 21 mph 1011.8mb 78f 79f
4:00 16 21 mph 1011.7mb 78f 79f
3:54 18 22 mph 1011.7mb 78f 79f
3:48 18 21 mph 1011.7mb 78f 79f
3:42 17 20 mph 1011.7mb 78f 79f
3:36 17 18 mph 1011.7mb 78f 78f
3:30 17 18 mph 1011.8mb 79f 78f
3:24 17 20 mph 1011.8mb 79f 78f
3:18 20 21 mph 1011.8mb 79f 78f
3:12 20 21 mph 1011.8mb 78f 78f
3:06 20 21 mph 1011.8mb 78f 78f
3:00 21 23 mph 1011.9mb 78f 78f
2:54 22
mph
1011.9mb 78f 78f
2:48 22 23 mph 1011.9mb 78f 79f
2:42 21 24 mph 1012mb 78f 79f
2:36 22 23 mph 1012.1mb 78f 79f
2:30 18 21 mph 1012.2mb 78f 79f
2:24 20 21 mph 1012.3mb 78f 79f
2:18 20 21 mph 1012.3mb 78f 79f
2:12 20 22 mph 1012.3mb 78f 79f
2:06 18 21 mph 1012.4mb 78f 79f
2:00 17 21 mph 1012.4mb 78f 79f
1:54 16 18 mph 1012.5mb 78f 79f
1:48 17 21 mph 1012.5mb 78f 79f
1:42 17 21 mph 1012.5mb 78f 79f
1:36 16 18 mph 1012.5mb 78f 79f
1:30 16 18 mph 1012.6mb 78f 79f
1:24 13 15 mph 1012.8mb 78f 79f
1:18 13 16 mph 1012.8mb 78f 79f
1:12 14 15 mph 1012.8mb 78f 79f
1:06 10 14 mph 1012.9mb 78f 79f
1:00 13 14 mph 1012.9mb 78f 80f
12:54 11 13 mph 1013mb 78f 80f
12:48 11 14 mph 1013mb 78f 79f
12:42 11 16 mph 1013mb 77f 79f
12:36 14 16 mph 1013mb 77f 79f
12:30 11 14 mph 1013.1mb 77f 80f
12:24 13 14 mph 1013.1mb 77f 80f
12:18 14
mph
1013.1mb 77f 80f
12:12 9 14 mph 1013.2mb 77f 80f
12:06 14 16 mph 1013.2mb 77f 80f
12:00 15 16 mph 1013.1mb 77f 80f
11:54 15
mph
1013.1mb 77f 79f
11:48 14
mph
1013.2mb 78f 79f
11:42 13 14 mph 1013.2mb 78f 79f
11:36 11 13 mph 1013.3mb 78f 79f
11:30 11 13 mph 1013.3mb 78f 78f
11:24 10 11 mph 1013.5mb 78f 78f
11:18 10
mph
1013.5mb 78f 78f
11:12 8 9 mph 1013.5mb 78f 78f
11:06 8
mph
1013.6mb 78f 78f
11:00 7
mph
1013.6mb 78f 77f
10:54 7 8 mph 1013.7mb 77f 77f
10:48 8 9 mph 1013.8mb 77f 77f
10:42 8
mph
1013.9mb 77f 77f
10:36 8 9 mph 1013.9mb 76f 77f
10:30 8 9 mph 1013.9mb 76f 77f
10:24 8 9 mph 1013.8mb 76f 76f
10:18 7 8 mph 1013.8mb 76f 76f
10:12 7 8 mph 1013.9mb 76f 76f
10:06 8
mph
1013.9mb 76f 76f
10:00 7 8 mph 1013.9mb 76f 76f
9:54 8 9 mph 1013.8mb 77f 75f
9:48 8
mph
1013.9mb 77f 75f
9:42 7 8 mph 1013.9mb 77f 75f
9:36 7 8 mph 1013.9mb 77f 75f
9:30 7 8 mph 1013.9mb 77f 75f
9:24 7 8 mph 1013.9mb 77f 75f
9:18 8
mph
1013.9mb 77f 74f
9:12 8
mph
1013.9mb 77f 74f
9:06 8
mph
1014mb 77f 74f
9:00 7 8 mph 1013.9mb 77f 74f
8:54 7 8 mph 1013.9mb 77f 74f
8:48 7
mph
1014mb 77f 74f
8:42 6 7 mph 1014mb 77f 74f
8:36 7 8 mph 1013.9mb 77f 74f
8:30 8
mph
1014mb 77f 74f
8:24 7 8 mph 1014mb 77f 74f
8:18 8
mph
1014.1mb 77f 74f
8:12 7 8 mph 1014mb 77f 74f
8:06 7 8 mph 1013.9mb 77f 74f
8:00 7 8 mph 1013.8mb 77f 74f
7:54 8 9 mph 1013.8mb 77f 73f
7:48 8
mph
1013.8mb 77f 74f
7:42 7 8 mph 1013.9mb 77f 73f
7:36 6 7 mph 1013.9mb 77f 74f
7:30 7
mph
1013.9mb 77f 73f
7:24 7
mph
1013.9mb 77f 73f
7:18 7
mph
1013.8mb 77f 73f
7:12 6 7 mph 1013.8mb 77f 73f
7:06 6 7 mph 1013.7mb 77f 73f
7:00 7 8 mph 1013.7mb 77f 73f
6:54 7 8 mph 1013.7mb 77f 73f
6:48 7 9 mph 1013.6mb 77f 73f
6:42 7 8 mph 1013.7mb 77f 73f
6:36 7 8 mph 1013.7mb 77f 73f
6:30 8 9 mph 1013.8mb 77f 73f
6:24 7 8 mph 1013.8mb 77f 73f
6:18 8
mph
1013.8mb 77f 73f
6:12 7 8 mph 1013.8mb 77f 73f
6:06 8 9 mph 1013.8mb 77f 73f
6:00 8 9 mph 1013.7mb 77f 73f
5:54 8 9 mph 1013.7mb 77f 73f
5:48 7 8 mph 1013.6mb 77f 73f
5:42 8
mph
1013.5mb 77f 73f
5:36 7 8 mph 1013.4mb 77f 73f
5:30 7
mph
1013.3mb 77f 73f
5:24 6 7 mph 1013.3mb 77f 73f
5:18 7 8 mph 1013.3mb 77f 73f
5:12 7 9 mph 1013.3mb 77f 74f
5:06 8
mph
1013.2mb 77f 74f
5:00 8
mph
1013.1mb 77f 74f
4:54 7
mph
1013.1mb 77f 74f
4:48 6
mph
1013.1mb 77f 74f
4:42 6 7 mph 1013mb 77f 74f
4:36 6 8 mph 1013.1mb 77f 74f
4:30 7 9 mph 1013.2mb 77f 74f
4:24 8 9 mph 1013.1mb 77f 74f
4:18 7 8 mph 1013.1mb 77f 74f
4:12 6 8 mph 1013.1mb 77f 74f
4:06 7
mph
1013.1mb 77f 74f
4:00 5 7 mph 1013.1mb 77f 74f
3:54 3 5 mph 1013.1mb 77f 74f
3:48 5 6 mph 1013.1mb 77f 74f
3:42 6
mph
1013mb 77f 74f
3:36 5 7 mph 1013.1mb 77f 74f
3:30 5 8 mph 1013mb 77f 74f
3:24 6 8 mph 1013.1mb 77f 74f
3:18 8 10 mph 1013.2mb 77f 74f
3:12 8 9 mph 1013.2mb 77f 74f
3:06 7
mph
1013.2mb 77f 74f
3:00 6 8 mph 1013.1mb 77f 74f
2:54 6 8 mph 1013.1mb 78f 74f
2:48 7 8 mph 1013.1mb 78f -
2:42 6
mph
1013.1mb 78f -
2:36 5 6 mph 1013.1mb 78f -
2:30 3 5 mph 1013.2mb 78f 74f
2:24 3 5 mph 1013.3mb 78f 74f
2:18 3 5 mph 1013.3mb 78f 75f
2:12 3 5 mph 1013.4mb 78f 75f
2:06 3 5 mph 1013.3mb 78f 75f
2:00 3 6 mph 1013.3mb 78f 75f
1:54 5 6 mph 1013.3mb 78f 75f
1:48 5 6 mph 1013.3mb 78f -
1:42 3 6 mph 1013.2mb 78f -
1:36 6 7 mph 1013.2mb 78f -
1:30 6
mph
1013.2mb 78f 75f
1:24 5 6 mph 1013.2mb 78f 75f
1:18 2 6 mph 1013.2mb 78f 75f
1:12 3 6 mph 1013.3mb 78f 75f
1:06 5 6 mph 1013.3mb 78f 75f
1:00 5 6 mph 1013.3mb 78f 76f
12:54 2 7 mph 1013.2mb 78f 75f
12:48 6
mph
1013.2mb 78f 75f
12:42 5 6 mph 1013.3mb 78f 75f
12:36 6
mph
1013.3mb 78f 75f
12:30 5 6 mph 1013.2mb 78f 76f
12:24 6 7 mph 1013.2mb 78f 76f
12:18 6 7 mph 1013.2mb 78f 76f
12:12 5 6 mph 1013.2mb 78f 76f
12:06 3 6 mph 1013.3mb 78f 76f
12:00 5 6 mph 1013.3mb 78f 76f
mié 07/27 11:54 6
mph
1013.2mb 78f 76f
11:48 5 6 mph 1013.3mb 78f 76f
11:42 6
mph
1013.3mb 78f 76f
11:36 5 6 mph 1013.4mb 78f 76f
11:30 2 5 mph 1013.5mb 78f 76f
11:24 3 5 mph 1013.4mb 78f 76f
11:18 3 6 mph - 78f -
11:12 5 6 mph - 78f -
11:06 3 6 mph - 78f -
11:00 6 8 mph 1013.5mb 78f -
10:54 6 8 mph 1013.4mb 78f -
10:48 7 8 mph - - -
10:42 6 7 mph - - -
10:36 5 7 mph - - -
10:30 5 6 mph - - -
10:24 5 7 mph - - -
10:18 6 8 mph - 78f -
10:12 8 9 mph - 78f -
10:06 8 9 mph - 78f -
10:00  -  mph - 78f -
9:54  -  mph - 78f -
9:48 9 10 mph - - -
9:42 10 11 mph - - -
9:36 10 11 mph - - -
9:30  -  mph 1013mb - -
9:24  -  mph 1013mb - -
9:18 7 10 mph - - -
9:12 9 10 mph - - -
9:06 9 10 mph - - -
9:00  -  mph - 77f -
8:54  -  mph - 77f -
8:48 8 11 mph 1012.8mb - -
8:42 8 13 mph 1012.6mb - -
8:36 11 15 mph 1012.7mb - -
8:30  -  mph 1012.6mb 77f -
8:24  -  mph 1012.6mb 77f -
8:18  -  mph - 77f 80f
8:12  -  mph - 77f 80f
8:06  -  mph - 77f 80f
8:00  -  mph - 77f 80f
7:54  -  mph - 77f 80f
7:48  -  mph 1012.3mb - -
7:42  -  mph 1012.4mb - -
7:36  -  mph 1012.5mb - -
7:30 14 17 mph - 77f -
7:24 15 20 mph - 77f -
7:18  -  mph - 77f 82f
7:12  -  mph - 77f 82f
7:06  -  mph - 77f 82f
7:00  -  mph - 77f 82f
6:54  -  mph - 77f 82f
6:48  -  mph - 77f 82f
6:42  -  mph - 77f 82f
6:36  -  mph - 77f 82f
6:30 17 20 mph - - -
6:24 17 20 mph - - -
6:18 18 22 mph 1012.2mb 77f 82f
6:12 18 22 mph 1012.1mb 77f 81f
6:06 21 23 mph 1012.1mb 78f 80f
6:00  -  mph - 78f -
5:54  -  mph - 78f -
5:48 23 24 mph - 78f 81f
5:42 21 23 mph - 78f 81f
5:36 20 22 mph - 78f 81f
5:30 20 22 mph 1012.3mb 78f 80f
5:24 22 24 mph 1012.2mb 78f 80f
5:18 21 23 mph 1012.1mb 78f 80f
5:12 21 23 mph 1012.2mb 78f 80f
5:06 22 23 mph 1012.3mb 78f 80f
5:00 23 24 mph 1012.3mb 79f 80f
4:54 23 25 mph 1012.3mb 79f 80f
4:48 24 25 mph 1012.4mb 79f 80f
4:42 22 24 mph 1012.4mb 79f 80f
4:36 21 23 mph 1012.4mb 79f 80f
4:30 21 22 mph 1012.5mb 79f 80f
4:24 21 22 mph 1012.5mb 79f 80f
4:18 21 23 mph 1012.5mb 79f 80f
4:12 20 21 mph 1012.6mb 79f 80f
4:06 18 21 mph 1012.6mb 79f 80f
4:00 20 22 mph 1012.6mb 79f 80f
3:54 20 21 mph 1012.7mb 78f 80f
3:48 18 21 mph 1012.7mb 78f 80f
3:42 18 21 mph 1012.8mb 78f 80f
3:36 17 21 mph 1012.8mb 78f 80f
3:30 20 22 mph 1012.9mb 78f 80f
3:24 20 22 mph 1012.9mb 78f 80f
3:18 20 21 mph 1013mb 77f 80f
3:12 20 21 mph 1013mb 77f 80f
3:06 20 22 mph 1013mb 77f 80f
3:00 20 22 mph 1013.1mb 77f 80f
2:54 18 20 mph 1013.1mb 76f 80f
2:48 17 20 mph 1013.2mb 76f 80f
2:42 18 21 mph 1013.2mb 75f 80f
2:36 16 18 mph 1013.3mb 75f 80f
2:30 17 21 mph 1013.3mb 76f 80f
2:24 20 21 mph 1013.3mb 76f 80f
2:18 18 20 mph 1013.4mb 76f 80f
2:12 18 23 mph 1013.4mb 76f 80f
2:06 21 22 mph 1013.4mb 76f 80f
2:00 16 18 mph 1013.4mb 77f 80f
1:54 16 20 mph 1013.4mb 77f 80f
1:48 17 20 mph 1013.5mb 77f 80f
1:42 14 15 mph 1013.5mb 77f 80f
1:36 16 18 mph 1013.6mb 77f 80f
1:30 18
mph
1013.6mb 77f 80f
1:24 15 17 mph 1013.7mb 77f 80f
1:18 16 17 mph 1013.7mb 77f 80f
1:12 16 17 mph 1013.7mb 77f 80f
1:06 17 21 mph 1013.7mb 77f 79f
1:00 11 14 mph 1013.7mb 77f 80f
12:54 7 8 mph 1013.7mb 77f 81f
12:48 8
mph
1013.7mb 77f 81f
12:42 8 9 mph 1013.8mb 76f 81f
12:36 8 9 mph 1013.7mb 76f 81f
12:30 7 8 mph 1013.8mb 76f 81f
12:24 8 9 mph 1013.8mb 76f 81f
12:18 9
mph
1013.8mb 76f 80f
12:12 9
mph
1013.8mb 76f 80f
12:06 8 9 mph 1013.8mb 76f 80f
12:00 8 9 mph 1013.9mb 76f 80f
11:54 9
mph
1013.9mb 77f 80f
11:48 8 9 mph 1013.9mb 77f 80f
11:42 9
mph
1013.9mb 77f 80f
11:36 9
mph
1014mb 77f 80f
11:30 9 10 mph 1014.1mb 78f 79f
11:24 9 10 mph 1014.1mb 78f 79f
11:18 10 11 mph 1014mb 78f 79f
11:12 10 11 mph 1014.1mb 78f 79f
11:06 7 8 mph 1014.1mb 78f 79f
11:00 7 8 mph 1014mb 78f 79f
10:54 7
mph
1014.1mb 78f 79f
10:48 6 7 mph 1014.2mb 78f 78f
10:42 7
mph
1014.2mb 78f 78f
10:36 5 6 mph 1014.2mb 78f 78f
10:30 5 6 mph 1014.2mb 78f 78f
10:24 5 6 mph 1014.2mb 78f 78f
10:18 6
mph
1014.2mb 78f 77f
10:12 6
mph
1014.3mb 78f 77f
10:06 5 6 mph 1014.3mb 77f 78f
10:00 5 6 mph 1014.3mb 77f 78f
9:54  -  6 mph 1014.4mb 76f 78f
9:48 3 5 mph 1014.4mb 76f 78f
9:42  -  3 mph 1014.5mb 75f 78f
9:36  -  3 mph 1014.5mb 74f 79f
9:30  -  5 mph 1014.4mb 74f 80f
9:24 2 5 mph 1014.3mb 74f 80f
9:18 5 7 mph 1014.4mb 74f 80f
9:12 6 7 mph 1014.3mb 74f 79f
9:06 5 6 mph 1014.4mb 74f 79f
9:00 1 5 mph 1014.4mb 74f 79f
8:54 5 6 mph 1014.5mb 74f 78f
8:48 5 6 mph 1014.5mb 75f 78f
8:42 2 6 mph 1014.5mb 76f 78f
8:36 6 8 mph 1014.5mb 76f 77f
8:30 2 3 mph 1014.5mb 77f 76f
8:24 2 3 mph 1014.5mb 77f 75f
8:18 3
mph
1014.4mb 77f 77f
8:12 2 3 mph 1014.4mb 77f 77f
8:06 3
mph
1014.5mb 77f 76f
8:00 2 3 mph 1014.5mb 77f 76f
7:54 3 5 mph 1014.4mb 77f 75f
7:48 3 5 mph 1014.4mb 77f 75f
7:42 5 6 mph 1014.4mb 77f 74f
7:36 6
mph
1014.4mb 77f 74f
7:30 5 6 mph 1014.4mb 77f 74f
7:24 6 7 mph 1014.3mb 77f 74f
7:18 6 7 mph 1014.3mb 77f 73f
7:12 7 8 mph 1014.3mb 77f 73f
7:06 7
mph
1014.2mb 77f 73f
7:00 6 7 mph 1014.3mb 77f 73f
6:54 6 7 mph 1014.3mb 78f 73f
6:48 6
mph
1014.3mb 78f 73f
6:42 5 6 mph 1014.3mb 78f 73f
6:36 6
mph
1014.2mb 78f 73f
6:30 6 7 mph 1014.2mb 78f 73f
6:24 6 7 mph 1014.2mb 78f 73f
6:18 7 8 mph 1014.2mb 78f 73f
6:12 7
mph
1014.1mb 78f 73f
6:06 6 7 mph 1014.1mb 78f 73f
6:00 7
mph
1014.1mb 78f 73f
5:54 7 8 mph 1014mb 78f 73f
5:48 6 7 mph 1014mb 78f 73f
5:42 6 7 mph 1014mb 78f 73f
5:36 6 7 mph 1014mb 78f 73f
5:30 5 6 mph 1013.9mb 78f 73f
5:24 5 6 mph 1013.8mb 78f 73f
5:18 5
mph
1013.9mb 78f 73f
5:12 2 3 mph 1013.8mb 78f 73f
5:06 3
mph
1013.6mb 78f 73f
5:00 3 5 mph 1013.6mb 78f 73f
4:54 3 5 mph 1013.5mb 78f 74f
4:48 3 6 mph 1013.4mb 78f 74f
4:42 5 6 mph 1013.3mb 78f 74f
4:36 5 6 mph 1013.3mb 78f 74f
4:30 6 7 mph 1013.2mb 78f 74f
4:24 6
mph
1013.2mb 78f 74f
4:18 6 7 mph 1013.2mb 78f 75f
4:12 7 9 mph 1013.1mb 78f 75f
4:06 7 8 mph 1013.1mb 78f 75f
4:00 7 9 mph 1013.2mb 78f 75f
3:54 7 8 mph 1013.3mb 78f 75f
3:48 7
mph
1013.4mb 78f 75f
3:42 7 8 mph 1013.4mb 78f 75f
3:36 8 10 mph 1013.4mb 78f 75f
3:30 8 9 mph 1013.4mb 78f 75f
3:24 7 8 mph 1013.5mb 78f 75f
3:18 7 8 mph 1013.4mb 78f 75f
3:12 7 9 mph 1013.4mb 78f 76f
3:06 8 10 mph 1013.4mb 78f 76f
3:00 8
mph
1013.4mb 77f 76f
2:54 6 7 mph 1013.3mb 77f 76f
2:48 6 7 mph 1013.4mb 77f 76f
2:42 7
mph
1013.4mb 77f 76f
2:36 6 7 mph 1013.3mb 77f 76f
2:30 6
mph
1013.3mb 77f 76f
2:24 6
mph
1013.3mb 77f 76f
2:18 6 7 mph 1013.3mb 77f 77f
2:12 7
mph
1013.2mb 77f 77f
2:06 6 7 mph 1013.3mb 77f 77f
2:00 6 7 mph 1013.2mb 77f 77f
1:54 7
mph
1013.2mb 77f 77f
1:48 7
mph
1013.2mb 77f 77f
1:42 6
mph
1013.2mb 77f 77f
1:36 6
mph
1013.2mb 77f 77f
1:30 6 7 mph 1013.2mb 77f 77f
1:24 5 6 mph 1013.3mb 77f 77f
1:18 3 6 mph 1013.2mb 77f 78f
1:12 5 7 mph 1013.1mb 77f 78f
1:06 6 7 mph 1013.2mb 77f 78f
1:00 6 7 mph 1013.2mb 77f 78f
12:54 6 7 mph 1013.3mb 77f 78f
12:48 6 7 mph 1013.3mb 77f 78f
12:42 7 8 mph 1013.3mb 77f 78f
12:36 7 8 mph 1013.2mb 77f 78f
12:30 7 9 mph 1013.2mb 77f 78f
12:24 8 10 mph 1013.1mb 77f 78f
12:18 8 10 mph 1013.1mb 77f 79f
12:12 8 10 mph 1013mb 77f 79f
12:06 9 10 mph 1012.9mb 77f 79f
12:00 9 10 mph 1013mb 77f 79f
mar 07/26 11:54 9 10 mph 1013mb 78f 79f
11:48 9 11 mph 1013mb 78f 79f
11:42 10 11 mph 1013mb 78f 80f
11:36 10 13 mph 1012.9mb 78f 80f
11:30 11 13 mph 1012.8mb 78f 80f
11:24 13 14 mph 1012.7mb 79f 80f
11:18 13 14 mph 1012.7mb 79f -
11:12 14 15 mph 1012.7mb 79f -
11:06 13 15 mph 1012.6mb 79f -
11:00 13 15 mph - 79f -
10:54 13 15 mph - 79f -
10:48 13 15 mph 1012.4mb 79f -
10:42 14 16 mph 1012.4mb 79f -
10:36 14 16 mph 1012.4mb 79f -
10:30 14 17 mph - 79f 81f
10:24 14 16 mph - 79f 82f
10:18 14 16 mph 1012.4mb 79f 82f
10:12 14 16 mph 1012.3mb 79f 82f
10:06 14 16 mph 1012.2mb 79f 82f
10:00  -  mph - 79f 82f
9:54  -  mph - 79f 82f
9:48 15 18 mph - - -
9:42 15 17 mph - - -
9:36 15 17 mph - - -
9:30 14 17 mph - 79f -
9:24 15 17 mph - 79f -
9:18 15 18 mph - 79f 83f
9:12 14 15 mph - 79f 83f
9:06 11 14 mph - 79f 83f
9:00  -  mph - 79f 83f
8:54  -  mph - 79f 83f
8:48 10 11 mph 1010.9mb - -
8:42 10 13 mph 1010.8mb - -
8:36 11 13 mph 1010.8mb - -
8:30 11 13 mph - 79f 84f
8:24 10 11 mph - 79f 84f
8:18  -  mph - 79f 84f
8:12  -  mph - 79f 84f
8:06  -  mph - 79f 84f
8:00  -  mph - 79f -
7:54  -  mph - 79f -
7:48  -  mph - 79f -
7:42  -  mph - 79f -
7:36  -  mph - 79f -
7:30 11 15 mph - 79f 86f
7:24 15 16 mph - 79f 87f
7:18 15 17 mph 1009.9mb 79f -
7:12 15 17 mph 1010mb 79f -
7:06 18 21 mph 1009.9mb 79f -
7:00  -  mph 1009.8mb 79f -
6:54  -  mph 1009.7mb 79f -
6:48  -  mph 1009.7mb 79f -
6:42  -  mph 1009.7mb 79f -
6:36  -  mph 1009.6mb 79f -
6:30 15 20 mph 1009.6mb 79f 87f
6:24 16 20 mph 1009.6mb 79f 87f
6:18 15 17 mph 1009.7mb 79f -
6:12 18 21 mph 1009.7mb 79f -
6:06 18 21 mph 1009.6mb 79f -
6:00  -  mph - 79f 87f
5:54  -  mph - 79f 87f
5:48 16 18 mph - 79f -
5:42 14 21 mph - 79f -
5:36 11 14 mph - 79f -
5:30 13 16 mph 1009.7mb 79f 86f
5:24 16 17 mph 1009.7mb 79f 87f
5:18 10 16 mph 1009.6mb 79f 88f
5:12 15 20 mph 1009.5mb 79f 87f
5:06 17 21 mph 1009.4mb 79f 87f
5:00 17 20 mph 1009.4mb 79f 87f
4:54 14 17 mph 1009.5mb 79f 87f
4:48 16 18 mph 1009.5mb 79f 87f
4:42 17 21 mph 1009.4mb 79f 87f
4:36 16 18 mph 1009.4mb 79f 86f
4:30 14 20 mph 1009.4mb 79f 87f
4:24 15 20 mph 1009.6mb 79f 87f
4:18 13 16 mph 1009.5mb 79f 86f
4:12 17 20 mph 1009.5mb 79f 86f
4:06 17 18 mph 1009.5mb 79f 86f
4:00 16 21 mph 1009.5mb 79f 87f
3:54 15 20 mph 1009.5mb 79f 86f
3:48 9 15 mph 1009.5mb 79f 86f
3:42 13 14 mph 1009.5mb 78f 86f
3:36 15 24 mph 1009.5mb 78f 86f
3:30 13 18 mph 1009.5mb 78f 86f
3:24 11 22 mph 1009.5mb 78f 87f
3:18 21 23 mph 1009.5mb 78f 87f
3:12 20 22 mph 1009.5mb 78f 86f
3:06 13 16 mph 1009.6mb 78f 86f
3:00 15 20 mph 1009.7mb 78f 86f
2:54 17 20 mph 1009.7mb 78f 86f
2:48 16 24 mph 1009.6mb 78f 86f
2:42 16 22 mph 1009.6mb 78f 86f
2:36 20 25 mph 1009.8mb 78f 86f
2:30 15 22 mph 1009.9mb 78f 86f
2:24 16 22 mph 1009.8mb 78f 86f
2:18 14 24 mph 1009.8mb 77f 85f
2:12 16 22 mph 1009.8mb 76f 85f
2:06 16 20 mph 1009.7mb 76f 84f
2:00 17 23 mph 1009.9mb 76f 85f
1:54 8 13 mph 1009.8mb 76f 85f
1:48 15 23 mph 1009.9mb 76f 85f
1:42 15 17 mph 1010mb 76f 84f
1:36 17 22 mph 1010mb 76f 84f
1:30 16 25 mph 1010.2mb 76f 85f
1:24 14 23 mph 1010.1mb 76f 84f
1:18 15 22 mph 1010.2mb 76f 84f
1:12 15 22 mph 1010.1mb 76f 84f
1:06 22 24 mph 1010.2mb 76f 84f
1:00 21 24 mph 1010.4mb 76f 84f
12:54 17 21 mph 1010.1mb 76f 84f
12:48 14 20 mph 1010.2mb 76f 84f
12:42 17 23 mph 1010mb 76f 84f
12:36 22 25 mph 1010.2mb 77f 83f
12:30 16 25 mph 1010.3mb 77f 84f
12:24 18 25 mph 1010.4mb 77f 84f
12:18 18 23 mph 1010.3mb 77f 84f
12:12 18 22 mph 1010.2mb 77f 83f
12:06 17 24 mph 1010.3mb 77f 84f
12:00 23 25 mph 1010.5mb 77f 83f
11:54 15 22 mph 1010.3mb 77f 83f
11:48 17 20 mph 1010.5mb 77f 83f
11:42 15 20 mph 1010.5mb 77f 83f
11:36 17 22 mph 1010.7mb 77f 83f
11:30 14 22 mph 1010.5mb 77f 82f
11:24 13 18 mph 1010.6mb 77f 82f
11:18 15 20 mph 1010.6mb 77f 82f
11:12 16 23 mph 1010.6mb 77f 82f
11:06 20 23 mph 1010.5mb 77f 82f
11:00 13 18 mph 1010.7mb 77f 82f
10:54 16 18 mph 1010.7mb 77f 82f
10:48 14 18 mph 1010.7mb 77f 81f
10:42 13 20 mph 1010.8mb 77f 81f
10:36 16 21 mph 1010.7mb 77f 81f
10:30 11 16 mph 1010.8mb 77f 80f
10:24 14 16 mph 1010.9mb 77f 80f
10:18 14 17 mph 1010.9mb 77f 80f
10:12 16 18 mph 1010.9mb 77f 80f
10:06 13 16 mph 1010.9mb 77f 80f
10:00 13 14 mph 1011mb 77f 80f
9:54 10 13 mph 1011mb 77f 80f
9:48 11 15 mph 1011mb 77f 80f
9:42 11 15 mph 1011.1mb 77f 79f
9:36 13 17 mph 1011.1mb 77f 79f
9:30 14 16 mph 1011.1mb 77f 79f